Find Weili Kongjian 02-08

NORAD ID: 68357 Int'l Des: 2026-060 Owner: CENTI Country: CN Constellation: future-navigation operational
LEOCIRCULAR

現在のビュー

3D地球を読み込み中...

About Weili Kongjian 02-08

Weili Kongjian 02-08 (NORAD 68357) is a future-navigation constellation satellite launched Mar 22, 2026 by CENTI of CN. It operates in LEO, CIRCULAR orbit with a mass of 140.00 kg.

Weili Kongjian 02-08について

説明を読み込み中...

次回通過

Passes for default location (London). Set your location on the main map for personalized predictions.

高度履歴

Loading altitude history...

軌道要素

1 68357U 26060H 26173.29158679 .00000540 00000-0 13519-3 0 9990
2 68357 54.9863 16.4561 0012172 312.7768 47.2202 14.65176796 13504
Epoch: Jun 22, 2026 • Age: 24 hours

現在のステータス

高度 683.8 km
速度 7.51 km/s
衛星直下点 -5.58°S, 176.63°W
打ち上げ日 Mar 22, 2026
運用期間 0.2 years
タイプ other

技術仕様

分類 Payload
質量 140.00 kg
乾燥質量 140.00 kg
総質量 140.00 kg
長さ 1.00 m
直径 0.50 m
スパン 2.00 m
形状 Box + 2 pan
製造者 DFHS
バスタイプ WK01
フェーズステータス In Orbit
所有者/国 CENTI/CN

Most Searched